User: anonymous   Login
Location: Gipe Farm
(40.9466°N, 95.5370°W)
Time: 13:26:22
(UTC-05:00)
Language:

Cosmos 1842 - Orbit

View from above orbital plane
View from above orbital plane
View from above satellite
View from above satellite

Ground track
Ground track

The orbit data is extracted from the following two-line orbital elements,

1 17911U 87038A   18141.17399824  .00001010  00000-0  57509-4 0  9995
2 17911  82.5239 222.9460 0012367 154.3252 205.8595 15.11673206692863
Epoch (UTC): 21 May 2018 04:10:33
Eccentricity: 0.0012367
inclination: 82.5239°
perigee height: 522 km
apogee height: 539 km
right ascension of ascending node: 222.9460°
argument of perigee: 154.3252°
revolutions per day: 15.11673206
mean anomaly at epoch: 205.8595°
orbit number at epoch: 69286

The dashed part of the orbit path shows where the satellite is in the earth's shadow,  

DLR